sat.trackr.live / text

‹ back to catalog

STARLINK-2370

NORAD 47910 · 2021-021BC

PAYLOAD ACTIVE UNKNOWN

§ Identity

Operator
Country
US
Launch date
2021-03-14
Launch site
AFETR
Launch vehicle
Mass (kg)
RCS (m²)

Purposes: comms

External: N2YO · Heavens-Above · Gunter

§ Orbital elements

Epoch: 2026-05-24T20:18:25.229376Z

Period
94.01 min
Inclination
53.1584°
Eccentricity
0.0001091
Mean motion
15.31721879 rev/d
Perigee alt
469.9 km
Apogee alt
471.4 km
Semi-major
6,848.8 km
B*
1.1463e-4
RAAN
273.9203°
Arg perigee
80.5176°
Mean anomaly
279.5949°
Rev number
28,792

§ Raw data

STARLINK-23701 47910U 21021BC  26144.84612534  .00003196  00000+0  11463-3 0  99932 47910  53.1584 273.9203 0001091  80.5176 279.5949 15.31721879287920

JSON: /api/v1/satellites/47910 · /tle

For live sub-satellite position, see the globe view (requires WebGL).

§ Visibility from observer

Set your observer location to see the next 7 days of passes ≥ 10°. The values pass through the URL so the page stays shareable.

No JS? Fill the form by hand. The geolocation button needs JavaScript.